Theta_e
339 339 340 341 343 342 340 339 339 338 340 341 341 342 343 343 343 342 342 342 340 340 337 337 338 339 338 337 335 334 333 332 330 327 325 323 322 322 325 324 324 324 325 322 322 319 319 311 308 311 313 314 314 313 313 311 310 311 313 313 310 310 311
341 342 342 341 340 341 340 339 338 337 338 340 342 342 342 342 341 340 340 340 340 338 336 337 338 337 338 336 334 333 333 331 331 331 330 325 325 326 323 323 323 321 319 321 322 322 320 319 314 308 308 312 313 314 313 313 312 313 311 311 310 310 312
341 341 341 338 339 339 338 338 337 336 337 337 340 342 342 342 341 340 338 339 339 337 335 336 336 336 336 335 336 335 335 333 333 331 330 330 328 329 327 325 321 320 320 319 319 318 317 319 317 310 311 308 306 310 313 312 312 311 311 311 311 309 310
340 339 337 337 337 337 336 336 335 335 336 337 339 340 341 340 340 339 338 338 339 337 334 334 334 333 334 334 335 335 335 334 332 331 330 331 330 329 327 326 324 322 322 321 320 319 321 318 316 315 312 310 308 309 310 311 311 310 309 311 309 309 310
341 338 337 336 336 336 336 334 334 334 334 336 338 338 339 338 338 337 337 336 335 336 334 334 334 334 334 333 331 331 332 333 334 331 331 329 329 329 328 327 326 326 326 325 326 323 322 321 320 317 313 309 307 309 308 310 309 308 308 308 307 308 309
342 339 338 338 337 336 335 334 333 332 333 333 335 337 338 337 337 336 335 334 334 334 334 332 332 331 331 330 329 329 330 329 329 331 329 330 329 328 327 328 327 327 326 328 328 325 324 324 321 316 311 310 307 306 305 306 304 306 306 306 306 307 307
341 340 339 338 338 337 337 335 334 334 333 334 336 337 336 335 334 334 333 333 334 333 331 331 329 328 329 327 328 327 326 328 328 330 330 330 329 329 330 327 325 324 324 325 325 324 323 320 318 317 311 308 310 306 305 305 304 302 302 304 305 306 306
341 339 339 340 340 338 338 337 337 337 336 337 337 338 334 333 333 332 332 333 332 331 329 328 327 327 327 325 325 326 325 324 324 325 326 327 325 325 324 324 324 323 322 321 320 321 322 321 320 318 312 307 305 306 303 304 303 304 303 303 304 304 306
341 340 339 339 340 340 339 339 338 339 338 338 338 337 332 332 332 331 331 331 330 329 328 327 326 325 324 324 323 323 322 319 322 321 322 322 323 323 323 322 321 319 319 317 317 319 318 321 320 319 315 312 307 303 305 303 303 303 304 304 303 303 304
341 340 338 339 340 340 340 340 340 339 339 338 337 334 331 331 332 331 330 329 328 327 327 326 325 325 324 324 323 321 321 319 319 319 319 319 320 319 319 318 319 317 315 316 315 316 317 317 317 317 316 314 312 307 303 303 303 303 302 305 303 301 303
341 340 340 339 339 338 339 341 341 338 337 336 335 332 331 330 330 329 329 327 326 326 326 324 323 323 323 322 322 321 320 319 318 317 317 317 317 317 316 315 316 313 314 314 314 315 315 316 315 315 315 315 315 310 309 305 305 306 303 303 303 300 301
341 340 339 340 339 338 338 339 338 337 337 335 333 330 329 328 328 328 327 325 325 324 324 323 322 322 322 320 319 318 317 317 316 316 316 316 315 315 314 314 314 312 313 313 313 313 313 313 314 313 313 313 314 314 312 308 305 305 307 303 301 302 301
340 339 339 339 337 337 338 338 337 336 335 333 332 329 328 326 327 326 325 324 323 323 322 321 321 321 321 320 318 317 316 315 315 315 313 314 313 314 313 312 312 311 312 311 311 311 310 311 313 311 311 311 312 315 313 309 306 305 305 303 303 301 302
340 339 339 339 338 337 338 338 336 336 334 332 331 328 327 326 325 325 323 322 322 321 321 320 320 319 319 318 317 317 315 314 313 314 313 312 311 313 312 310 311 311 312 311 310 310 308 309 310 310 310 310 310 312 311 309 307 303 303 305 304 303 304
339 339 338 338 337 336 337 337 336 334 332 331 329 327 326 326 325 323 322 321 321 320 320 319 318 318 317 316 316 315 314 313 313 313 312 310 311 312 313 310 309 310 311 310 310 307 307 307 307 306 307 308 308 310 313 309 306 303 300 301 301 302 303
338 338 337 337 336 336 336 336 335 334 332 330 328 327 326 325 323 322 322 321 320 319 319 318 317 316 315 315 314 314 314 313 313 312 311 311 309 311 311 311 310 310 311 310 310 310 310 308 307 306 306 307 308 308 308 309 306 303 301 300 303 301 303
338 337 336 336 336 337 336 335 334 333 331 330 327 326 325 323 322 321 321 319 319 318 318 317 315 315 314 315 314 313 313 313 313 313 311 310 309 309 310 310 310 310 310 309 308 308 308 308 307 305 306 307 307 307 307 308 308 305 303 299 300 300 302
336 336 336 336 336 336 335 335 333 332 330 328 327 325 323 321 320 320 320 319 318 317 316 315 313 314 315 316 315 314 312 312 313 312 312 311 310 310 310 310 309 310 310 308 308 306 307 307 306 306 305 305 305 306 306 306 306 306 303 302 301 303 303
335 336 336 336 335 336 335 334 333 332 330 327 326 324 321 320 319 319 320 319 318 317 315 314 313 313 314 315 315 314 313 312 312 311 311 311 310 311 310 310 309 309 309 308 307 307 307 307 306 305 304 304 304 306 306 306 306 305 304 302 302 300 303
335 336 336 335 335 335 334 334 333 331 329 327 325 323 321 319 319 320 319 318 317 316 314 313 313 313 313 314 314 313 312 312 311 311 311 310 310 310 310 310 310 309 309 309 308 307 307 307 306 305 305 306 305 305 305 304 303 303 303 302 302 303 302
335 335 335 335 333 334 334 334 333 332 329 326 324 323 320 319 319 320 319 318 317 315 313 312 313 314 314 314 313 313 312 311 310 310 311 310 310 310 310 310 309 309 309 309 308 308 307 306 306 305 306 306 306 305 304 304 303 302 302 301 300 300 302
335 336 334 333 332 332 333 334 332 331 329 327 325 323 321 320 319 318 318 317 315 314 312 312 313 314 314 313 313 312 311 310 310 309 309 309 310 309 309 310 309 309 310 308 307 306 307 306 305 304 305 306 306 306 305 304 303 302 301 301 301 302 300
334 333 333 332 331 331 331 332 332 330 328 326 323 322 321 320 318 318 316 315 314 313 312 313 310 307 308 312 312 311 311 311 310 309 309 309 309 309 309 309 310 307 306 305 302 300 299 301 304 305 305 307 306 306 305 303 302 301 301 300 300 300 300
333 331 331 331 331 330 330 331 331 329 328 325 322 320 320 318 318 317 316 314 313 312 312 312 302 299 300 303 310 311 311 310 310 310 309 309 308 309 309 308 309 307 306 304 303 297 297 296 297 298 300 303 307 307 305 303 302 303 301 301 302 301 300
331 331 331 330 330 329 329 329 329 328 326 324 321 320 319 317 317 317 316 314 313 312 312 306 297 297 298 299 304 310 311 310 310 310 309 309 309 309 308 308 309 309 309 308 306 302 299 296 295 295 295 296 296 297 299 306 305 303 303 302 301 301 301
331 330 330 330 330 328 327 326 327 326 325 325 321 318 318 317 317 317 316 314 313 312 313 300 296 296 297 297 299 306 310 311 310 310 310 309 308 308 308 307 308 310 310 307 305 305 304 301 297 295 295 296 295 294 293 292 295 308 306 303 302 302 302
330 330 329 329 328 327 326 325 326 326 325 324 319 318 318 318 318 316 315 314 313 313 313 300 296 296 296 296 296 301 310 310 310 310 309 309 309 309 308 307 306 308 309 307 307 306 305 303 302 301 301 302 302 301 296 292 292 291 300 306 304 302 304
330 329 329 329 328 326 326 326 327 326 324 322 319 317 317 318 318 316 315 314 314 312 312 297 295 295 295 295 295 300 311 310 310 310 310 310 310 309 309 308 308 308 308 307 306 305 304 303 303 303 302 302 303 305 306 306 305 306 305 306 306 306 306
329 329 328 328 327 326 326 327 326 325 323 320 320 319 319 319 317 316 316 315 314 312 310 295 295 295 295 295 295 307 310 309 309 309 310 310 309 309 309 309 308 308 307 307 302 296 300 304 302 302 301 302 302 304 307 308 299 301 308 308 308 307 307
329 328 328 327 327 326 326 326 326 324 321 319 318 317 317 318 319 316 314 313 313 312 306 296 294 294 294 294 298 308 308 307 308 308 309 309 308 308 308 308 308 307 306 306 298 293 294 299 303 302 301 301 301 302 304 308 294 290 292 293 293 292 291
329 328 328 327 326 325 326 326 325 322 321 319 317 318 318 318 319 317 314 313 311 308 305 298 294 294 294 294 301 307 307 307 307 307 308 308 308 307 307 307 307 307 305 305 293 292 292 299 303 302 301 300 300 301 304 307 305 303 292 292 292 291 291
329 328 328 327 327 325 325 324 325 324 323 320 318 319 318 318 318 317 315 311 308 309 307 300 294 294 294 294 301 308 306 306 306 307 307 306 307 306 306 306 305 305 306 303 291 292 292 299 303 302 301 301 300 301 303 306 304 304 304 304 304 303 301
329 328 328 327 327 326 325 325 323 322 323 322 319 319 319 317 313 313 312 311 310 311 307 302 298 294 294 294 298 307 307 306 305 306 306 306 305 306 305 306 303 295 295 293 292 291 291 294 302 303 303 302 301 300 303 305 305 304 305 303 304 305 305
329 329 328 328 327 325 325 324 323 321 321 321 320 318 317 317 314 313 313 313 312 311 308 304 300 293 294 295 296 301 306 306 307 306 306 305 305 305 304 305 306 297 292 292 292 291 291 292 296 305 304 303 304 304 302 303 303 300 304 305 304 303 304
330 329 329 328 327 326 326 326 324 323 321 317 315 315 315 315 315 314 313 311 311 311 308 303 303 294 294 294 296 298 305 307 307 307 306 306 305 305 305 305 307 299 291 291 291 292 291 292 292 303 304 296 293 289 300 301 303 302 302 303 301 300 301
329 330 328 327 327 327 326 325 323 319 317 315 314 312 312 314 315 313 310 309 311 311 308 304 298 298 294 294 295 296 298 302 297 307 306 305 305 305 306 307 306 298 292 291 291 291 292 291 292 299 294 291 290 288 295 299 301 301 300 301 300 300 300
329 329 328 327 328 326 324 324 321 318 316 313 312 310 310 312 313 311 308 306 307 309 308 306 298 296 296 293 294 295 295 296 296 305 307 307 307 307 307 308 305 295 292 292 291 291 292 292 298 293 291 290 289 291 298 299 298 299 299 297 298 299 300
Wind_Speed
15 13 12 11 10 9 10 11 10 9 10 10 10 10 11 10 8 8 8 7 7 7 7 7 7 7 6 5 7 6 5 5 7 7 8 8 9 7 6 4 2 2 4 1 5 6 4 5 7 5 5 5 4 4 3 4 4 4 3 2 3 3 3
14 11 8 8 10 11 11 10 10 9 9 10 10 11 11 10 8 8 9 8 8 8 7 7 7 7 8 7 7 6 6 6 6 6 6 7 8 7 7 5 4 4 4 1 1 2 5 7 4 8 7 6 4 4 3 2 2 3 3 3 3 3 4
13 9 8 11 11 10 11 11 10 9 8 9 10 11 10 9 8 8 9 10 9 8 8 8 6 6 6 6 7 7 7 7 5 6 7 6 7 6 7 6 7 4 4 4 4 4 1 4 6 5 8 9 8 6 4 4 4 4 4 4 4 4 3
14 11 12 12 12 11 11 11 10 9 9 9 9 9 10 8 8 8 8 9 8 7 7 7 7 7 6 6 5 6 6 8 6 7 6 6 5 6 8 7 8 8 7 7 6 6 6 4 4 4 5 7 6 6 4 4 4 5 4 4 3 3 3
14 12 15 15 14 13 12 11 10 9 8 9 9 9 10 8 8 7 8 8 7 7 7 6 6 6 5 4 4 5 5 6 5 6 6 7 7 6 7 7 8 7 8 8 7 6 6 7 6 5 4 5 3 4 6 5 5 5 4 4 3 3 3
14 16 16 15 15 13 12 12 11 10 9 9 10 11 11 10 8 8 8 7 6 6 6 6 5 5 5 5 5 6 5 6 6 7 6 7 7 7 7 7 7 7 8 6 4 5 5 5 6 4 3 3 4 5 6 7 5 4 3 4 3 3 3
14 15 15 16 15 13 12 13 13 12 11 12 12 12 9 10 9 8 8 7 7 6 6 6 5 5 5 5 5 5 5 4 4 6 6 7 6 7 5 5 6 6 6 3 4 4 4 5 6 6 5 3 3 5 5 5 6 6 4 3 3 3 3
14 15 16 14 13 15 13 13 13 12 11 12 12 9 9 9 8 8 8 8 7 7 6 6 5 5 5 4 4 4 3 3 3 4 4 5 5 6 5 5 5 4 3 3 3 5 5 6 6 6 7 7 4 4 5 5 6 5 5 4 3 3 3
11 14 15 14 12 14 14 14 13 12 12 11 8 8 9 9 10 10 9 8 7 7 7 7 7 6 6 5 4 4 4 2 3 4 4 4 5 5 5 4 4 4 2 2 3 3 3 3 4 5 7 7 7 6 5 5 6 5 4 4 4 2 2
14 15 17 17 14 14 14 13 10 12 11 9 7 8 10 9 9 9 9 8 7 7 7 7 7 6 6 5 5 5 4 4 3 4 3 4 4 4 3 5 4 3 3 2 2 2 2 2 3 5 7 7 7 7 7 7 7 5 5 4 4 4 2
15 15 17 16 16 15 13 9 8 8 10 9 8 7 9 10 8 9 8 8 7 7 7 7 7 7 6 5 5 4 4 4 4 3 3 3 4 4 4 4 4 4 3 3 3 2 2 2 3 4 6 5 6 8 6 7 5 4 5 3 1 3 3
15 17 18 16 16 15 14 11 10 10 9 9 8 8 9 9 8 8 8 8 7 8 7 7 7 6 7 5 5 4 4 5 4 4 3 4 4 5 6 6 4 4 4 4 3 3 2 2 2 3 3 2 4 6 6 6 5 3 2 5 3 2 3
16 18 18 17 16 17 15 13 11 11 11 10 9 10 10 10 10 10 8 8 8 8 8 7 7 7 6 6 6 5 5 6 6 5 5 4 4 5 7 7 6 5 5 4 4 4 3 2 2 3 3 4 3 3 5 5 6 5 3 3 4 4 4
19 20 19 18 18 17 14 12 12 11 10 10 10 11 11 11 11 10 10 10 10 9 9 8 7 7 7 7 5 6 6 7 7 5 6 6 5 6 6 7 6 6 5 6 5 4 4 4 3 3 2 3 4 4 5 5 5 7 4 2 2 3 3
19 19 19 18 19 17 15 11 11 11 12 11 12 12 12 10 10 11 10 10 10 10 10 9 8 7 7 7 6 4 6 7 7 7 6 7 7 5 6 7 7 6 5 6 6 6 5 5 4 4 4 4 4 5 4 5 5 6 7 4 4 4 4
20 20 20 18 19 18 15 12 12 12 11 10 11 11 12 11 12 11 10 10 10 10 10 9 8 8 7 8 8 6 6 7 7 7 7 7 8 6 7 7 7 6 5 6 5 5 4 4 4 4 4 3 4 5 4 4 6 6 7 6 4 5 4
21 20 20 18 20 18 16 12 12 12 12 10 11 10 10 12 11 12 11 11 11 10 10 8 8 8 9 9 8 8 8 7 7 7 8 8 8 8 8 7 7 7 7 7 6 5 4 4 4 4 5 4 4 5 4 4 4 6 6 7 5 4 4
20 21 21 18 20 19 16 13 12 13 12 11 12 11 10 10 11 12 11 12 12 11 10 10 9 9 8 8 9 8 8 8 7 8 7 8 8 8 8 8 8 8 8 7 6 5 5 5 4 4 4 4 4 4 4 4 4 5 6 6 6 3 3
22 23 22 19 19 18 17 14 13 11 12 13 11 11 12 11 11 12 12 12 12 11 10 10 10 10 10 9 8 7 7 8 8 8 7 8 8 8 8 8 8 8 8 8 7 6 6 6 4 4 5 5 5 5 5 5 4 5 5 5 6 5 3
21 20 19 19 17 17 17 15 14 13 12 13 12 12 12 12 11 12 12 11 11 11 11 10 9 9 9 9 9 8 7 8 8 7 7 8 8 8 8 8 8 8 8 8 8 7 7 6 5 5 5 5 5 6 5 5 5 6 5 5 4 3 4
20 19 18 15 17 17 16 17 15 13 13 13 13 13 13 13 11 11 11 11 10 10 9 9 9 9 9 9 8 8 8 8 8 7 7 7 7 7 8 7 8 8 8 7 8 7 7 6 5 6 5 5 5 6 5 5 5 5 5 5 5 5 3
18 15 17 17 12 16 16 16 14 13 12 12 11 13 13 13 12 12 11 10 11 9 9 9 8 9 9 10 9 9 9 9 9 8 8 7 7 7 7 7 7 7 6 6 8 8 8 7 6 6 6 6 6 6 6 5 5 5 5 5 5 4 4
17 17 13 17 15 13 12 14 14 13 13 13 11 11 12 12 13 13 13 11 10 8 7 6 10 15 13 10 10 8 8 9 10 9 9 8 7 8 8 6 5 7 7 8 9 9 8 8 7 7 8 7 7 6 6 6 5 5 5 6 6 6 5
13 12 14 19 13 13 14 12 13 13 13 12 12 11 11 13 12 11 13 13 12 9 8 8 16 16 15 14 11 10 10 9 10 9 9 9 9 8 6 6 6 7 8 8 8 9 9 8 6 6 7 6 5 6 7 6 5 6 6 5 5 5 5
18 14 16 19 16 12 11 12 13 12 12 12 10 11 12 13 12 12 11 12 11 10 9 13 18 17 16 16 12 10 9 9 9 9 9 10 8 8 8 7 6 6 7 8 8 7 7 7 8 9 8 6 4 1 3 0 5 6 6 5 6 6 5
18 16 19 18 13 11 11 12 12 13 13 11 10 12 14 13 12 12 12 13 12 10 9 16 18 18 17 17 15 12 9 9 10 9 9 10 10 9 8 8 7 6 6 10 9 8 8 7 7 9 9 6 3 3 2 2 6 2 5 5 6 6 6
17 16 16 14 11 12 12 13 12 11 11 10 10 11 12 14 13 13 13 12 11 10 10 17 19 19 17 17 16 12 9 10 9 10 10 10 9 10 10 9 9 8 7 8 8 9 9 8 8 6 6 5 5 5 4 4 4 2 4 5 6 6 6
15 12 13 13 14 12 15 17 17 12 11 12 13 13 13 13 12 13 13 12 11 10 9 19 19 19 18 18 17 11 8 8 8 9 9 9 9 10 10 9 10 9 9 9 7 9 9 9 9 7 6 5 5 6 6 6 7 6 5 5 5 5 3
15 15 16 16 16 16 15 19 19 12 11 8 9 8 10 12 13 13 13 13 11 11 9 21 20 20 19 18 18 9 8 9 9 9 9 9 9 9 10 9 9 9 9 8 9 12 10 8 8 7 6 6 6 5 5 2 2 2 4 5 5 5 3
15 15 16 16 15 11 12 14 17 12 11 12 12 9 11 12 11 12 12 10 10 9 9 17 20 20 19 19 15 9 9 8 8 9 9 9 9 8 8 10 9 8 9 9 12 13 12 11 9 8 7 7 6 5 7 4 4 4 5 5 6 6 7
15 15 15 16 16 15 12 14 12 11 13 12 12 10 11 11 11 11 13 13 13 14 10 15 22 21 21 21 16 11 10 9 9 9 8 8 7 7 8 11 11 9 9 9 14 14 14 11 9 8 8 8 7 7 7 4 3 3 4 4 5 7 7
15 15 15 15 14 14 14 14 12 12 10 11 13 12 10 11 9 9 9 12 18 14 8 12 18 20 22 22 16 9 10 9 9 9 9 8 7 7 7 9 12 10 11 11 16 15 15 12 9 9 9 8 8 8 7 7 6 6 5 5 5 5 6
15 15 16 14 13 15 13 10 9 12 13 12 10 9 8 8 11 11 11 13 11 11 11 11 16 21 21 21 18 10 9 9 10 10 9 9 8 7 7 8 10 12 12 15 17 16 16 14 10 9 8 8 7 7 6 6 8 7 7 7 6 5 6
16 15 15 14 13 10 11 14 15 13 11 9 10 13 14 12 11 11 10 8 8 9 9 12 14 19 20 22 19 14 9 10 10 10 9 9 9 9 8 8 8 12 13 14 16 16 16 15 12 8 9 8 8 4 4 4 6 5 7 6 6 5 6
15 13 13 14 14 12 11 11 13 17 12 11 12 13 14 14 14 11 9 9 9 9 11 17 14 18 19 20 21 19 11 10 11 10 9 8 8 8 8 8 8 12 15 13 14 16 16 15 14 8 9 10 7 9 4 4 5 6 7 7 7 7 8
13 11 12 13 14 17 16 16 13 10 12 13 13 12 12 15 14 14 11 8 8 9 9 10 17 15 19 19 19 18 16 12 13 10 10 10 10 9 8 8 9 13 16 14 14 15 15 15 11 10 11 9 9 8 4 4 5 6 6 7 7 8 8
13 11 13 13 13 16 15 16 13 12 12 12 12 12 11 12 14 14 13 11 11 10 9 8 13 18 17 21 19 18 16 16 16 11 9 8 8 8 8 9 9 15 15 15 15 15 15 13 10 13 11 11 10 8 5 5 5 6 6 6 7 8 8
Wind_Direction
212 210 199 191 185 186 191 193 190 188 190 188 183 190 199 194 179 175 178 180 181 180 178 187 184 184 181 181 184 194 188 182 185 196 191 182 190 198 194 208 193 148 157 293 183 215 253 182 188 198 205 192 199 211 218 201 179 166 154 184 164 146 132
211 206 184 187 193 194 194 192 191 186 187 192 191 193 197 192 175 178 178 180 182 180 185 189 187 181 184 179 183 191 197 196 198 206 198 195 201 204 170 201 196 185 180 198 202 212 238 252 206 179 189 179 207 196 174 162 164 165 155 150 126 126 123
207 195 177 195 194 190 198 194 189 185 183 187 194 198 196 185 178 177 181 183 181 178 188 190 180 175 182 189 191 195 196 200 198 205 213 209 203 211 197 183 194 176 200 199 197 195 208 257 269 191 180 178 194 178 151 160 154 143 142 138 145 138 120
199 186 192 193 193 191 198 193 189 187 185 187 189 192 194 179 179 180 184 182 177 172 182 178 183 189 186 189 191 197 202 207 202 203 211 218 211 213 207 206 207 201 209 213 208 203 224 209 217 214 182 195 196 155 151 139 132 138 140 135 134 123 119
190 188 195 196 191 191 193 190 187 186 188 190 191 191 191 182 175 180 179 176 172 174 177 178 180 187 176 179 180 194 204 207 208 203 209 210 209 218 211 214 221 220 225 237 236 209 218 243 242 245 183 150 150 126 127 125 134 141 135 125 117 114 115
198 195 200 199 191 191 191 185 183 189 183 186 194 195 191 174 176 174 176 176 170 173 168 171 170 169 168 179 185 192 194 194 200 202 207 209 204 213 212 212 223 223 230 231 237 222 226 249 244 215 114 158 177 145 148 158 153 135 120 127 125 116 118
200 196 204 202 194 193 190 186 186 187 188 195 195 199 170 175 181 174 167 170 168 163 162 166 163 169 170 182 177 188 188 191 188 199 212 209 208 218 221 210 212 222 227 210 222 214 206 207 217 212 143 138 148 153 155 183 159 160 147 135 127 120 116
199 200 206 205 188 194 191 191 192 195 194 199 202 185 167 173 165 165 170 167 162 158 158 159 160 159 163 165 166 167 165 164 180 194 206 201 206 209 211 219 210 219 219 201 209 223 217 216 220 187 159 153 153 165 175 185 174 219 150 130 126 121 110
190 201 207 203 192 194 192 195 193 190 199 196 193 166 171 172 171 170 169 168 158 159 162 162 162 162 160 160 152 160 162 149 172 190 198 198 210 199 202 198 206 205 179 184 206 207 216 216 218 179 188 188 174 179 187 189 196 185 170 169 130 103 114
189 193 204 202 190 193 196 194 178 181 177 177 174 168 168 175 170 167 165 158 159 158 158 161 162 157 156 159 160 161 163 160 176 186 181 197 181 177 183 183 198 161 159 150 167 173 183 197 211 204 207 209 204 204 182 200 197 191 166 199 199 128 118
191 195 203 200 192 196 194 183 174 167 175 175 173 166 168 169 168 163 158 156 157 159 160 160 161 155 155 153 155 162 152 155 166 161 174 179 162 167 161 166 163 154 136 156 136 134 153 180 189 201 213 223 224 228 203 210 180 180 148 142 204 133 135
190 199 203 198 193 196 188 186 180 176 165 168 168 166 168 168 165 167 160 156 157 160 159 157 155 156 159 150 155 154 153 166 170 168 159 162 157 165 161 156 151 136 140 128 125 123 126 161 174 180 193 205 221 240 218 217 197 141 157 155 124 101 108
188 198 202 198 194 198 193 181 173 170 171 167 174 169 171 170 171 167 166 158 157 159 161 158 161 156 158 158 158 163 162 170 173 167 159 162 159 170 159 156 154 146 143 138 131 127 128 125 151 170 175 185 186 212 212 209 230 140 160 127 131 132 138
190 198 198 196 196 198 192 176 177 174 162 172 167 171 174 174 174 169 165 162 163 163 163 160 161 158 160 156 159 159 159 173 174 163 159 158 165 167 164 155 148 143 150 145 138 138 134 131 137 143 155 170 173 179 191 189 175 128 131 124 140 141 134
194 194 196 195 197 197 191 172 170 166 171 172 173 174 175 171 171 169 164 163 162 165 166 162 159 161 158 154 155 155 166 173 175 165 164 164 164 165 159 153 149 148 155 145 144 146 144 146 144 140 145 166 172 169 181 173 151 150 145 156 162 151 149
194 194 193 193 196 197 190 169 170 170 172 170 174 175 174 171 171 169 165 162 163 165 166 160 160 160 157 161 163 167 171 175 175 170 172 167 166 161 161 155 153 152 153 146 144 132 136 137 132 127 128 140 140 144 156 157 147 142 148 147 154 161 157
194 193 193 195 196 195 185 168 171 175 175 168 173 175 170 170 167 168 166 165 165 164 162 159 160 165 165 167 168 171 173 177 178 176 174 168 164 169 168 159 157 159 159 149 146 141 138 133 133 125 121 116 120 122 125 130 142 140 150 144 170 168 150
193 194 194 194 195 191 184 165 173 174 171 173 175 168 168 169 169 171 168 170 168 166 165 161 161 164 165 170 171 168 173 176 177 178 173 170 168 174 171 168 161 163 162 151 147 149 144 140 134 131 124 121 119 118 121 129 128 138 147 145 141 134 146
195 196 194 194 192 188 184 172 171 171 173 174 169 171 170 173 175 177 175 172 168 165 162 164 165 165 167 168 170 167 169 171 174 175 173 173 175 175 174 168 164 165 164 159 156 146 147 145 137 133 129 126 125 123 119 118 126 135 136 134 144 145 168
196 195 193 191 187 186 182 176 175 174 175 174 170 171 177 176 177 177 174 168 167 162 160 160 161 161 165 168 170 167 164 167 169 169 176 176 175 175 174 167 164 166 169 163 154 155 151 148 148 144 138 132 131 131 126 123 130 132 131 132 136 147 149
195 194 192 178 183 186 183 184 179 172 170 173 176 176 176 177 174 176 171 170 165 157 152 156 158 162 164 165 166 166 165 167 171 170 172 176 173 176 174 168 168 171 173 163 160 155 151 153 155 150 144 143 143 138 131 132 137 139 144 155 161 162 165
193 188 181 182 172 180 180 181 172 171 169 172 174 178 176 175 171 174 168 166 162 157 156 160 160 162 163 166 166 166 169 172 170 171 173 173 174 174 173 168 169 173 166 150 149 152 162 159 162 158 155 157 156 147 141 147 148 153 161 164 158 161 166
183 181 167 181 177 169 164 173 176 171 172 174 170 171 172 173 173 172 167 167 163 160 160 161 167 166 164 163 166 165 167 172 173 171 171 169 172 176 173 168 161 151 145 142 147 153 153 165 170 165 164 167 164 157 154 154 160 168 170 174 174 174 183
173 166 173 185 173 164 167 169 175 175 175 173 170 165 167 171 176 173 168 166 168 169 167 169 163 165 166 161 161 165 168 171 174 172 172 172 173 171 165 165 162 157 153 152 154 158 160 165 161 143 151 163 168 168 162 162 169 177 181 185 174 187 194
179 176 175 182 175 159 156 163 175 174 174 172 167 165 170 175 175 171 168 168 167 170 172 162 163 166 167 166 165 162 166 168 172 175 178 176 170 165 168 167 168 166 175 170 161 161 161 157 149 147 153 154 167 330 348 117 176 180 193 187 181 194 193
180 176 182 182 168 149 157 165 173 177 181 176 157 170 177 172 176 174 170 170 171 171 168 159 165 167 169 170 168 162 170 170 172 177 176 177 173 171 169 168 166 171 162 153 161 168 163 157 153 158 161 159 166 194 212 4 349 323 195 200 194 193 201
179 174 174 169 152 160 162 171 173 175 172 168 165 174 180 178 175 174 173 171 170 173 167 163 167 168 169 169 168 169 168 168 173 175 176 176 173 173 172 172 172 172 165 172 178 169 168 160 159 159 164 180 189 193 204 210 218 278 286 225 209 205 196
173 164 163 169 172 167 173 180 185 182 176 176 173 177 179 181 178 176 175 173 171 171 169 162 166 168 168 167 168 172 164 164 170 173 177 176 174 175 175 175 177 175 170 176 174 171 168 164 160 161 169 182 202 202 206 203 204 206 203 219 222 223 200
174 170 172 174 176 175 173 182 186 179 175 172 177 168 179 185 177 176 172 171 172 173 160 166 167 168 166 166 164 171 164 168 172 175 176 175 175 179 176 173 175 174 171 175 159 165 165 155 159 167 178 190 205 210 216 137 41 274 232 217 216 226 232
171 172 173 175 175 165 168 175 184 174 176 181 179 176 182 186 182 173 164 166 167 157 153 174 167 166 164 163 165 171 164 169 174 177 178 173 176 174 172 175 178 173 170 176 157 162 152 158 170 176 183 193 203 205 214 168 159 204 255 286 300 310 309
171 173 174 178 178 175 166 176 175 177 182 177 184 183 179 181 183 177 171 168 160 174 183 174 168 166 164 168 173 169 167 171 172 174 170 172 176 177 176 173 177 175 173 173 156 166 161 168 178 180 188 193 194 202 207 181 177 174 163 220 244 258 264
171 172 177 179 174 173 179 179 169 167 182 184 186 181 171 179 171 161 163 170 176 173 143 171 174 167 168 173 176 161 166 168 168 171 171 172 175 179 177 181 180 177 182 157 161 168 173 181 186 185 188 192 195 202 207 190 192 196 196 210 221 220 239
172 175 179 177 176 176 171 171 177 176 176 181 185 186 182 166 160 169 170 180 179 164 154 161 177 174 172 174 178 165 166 168 175 173 175 173 174 182 178 181 185 186 179 160 171 175 180 190 191 189 188 196 196 202 201 198 204 212 210 218 224 215 233
176 179 175 173 175 175 178 177 170 176 186 173 168 178 179 183 170 170 175 168 166 164 155 160 175 177 177 175 175 163 171 174 173 172 176 176 183 180 181 185 185 184 185 175 175 179 182 191 201 192 194 198 203 157 132 196 194 206 224 220 227 227 233
177 178 178 169 170 176 181 181 178 180 174 171 173 177 176 180 184 176 169 161 169 164 159 169 164 180 182 179 176 174 171 175 172 167 169 181 184 185 184 182 187 175 182 182 182 182 187 191 197 205 200 204 132 122 166 202 189 192 215 218 223 226 229
177 176 172 174 173 178 180 183 180 172 168 168 169 171 174 180 179 179 174 168 168 167 159 166 173 171 181 180 180 181 180 171 168 168 177 183 186 187 186 182 184 169 179 180 181 185 190 195 188 209 205 180 149 156 151 206 193 199 212 218 223 229 232
176 173 171 174 180 177 179 182 169 167 171 168 170 173 178 175 177 174 171 169 175 175 163 158 175 177 176 182 181 180 180 176 171 184 177 184 182 180 180 183 175 169 178 183 186 187 192 184 195 206 203 175 156 158 188 180 197 210 215 224 225 231 235